Location: Neuvy Saint Sepulchre
(46.5953°N, 1.8122°E)
Time: 16:39:05
(UTC+02:00)

ISS - Pass Details

Date: 03 May 2026
Orbit: 414 x 424 km, 51.6° (Epoch: 21 May)

Event Time Altitude Azimuth Distance (km) Brightness Sun altitude
Exits shadow 03:16:55 34° 14° (NNE) 708 -2.1 -24.7°
Drops below altitude 10° 03:19:34 10° 60° (ENE) 1,501 -0.3 -24.6°
Sets 03:21:46 0° 69° (ENE) 2,368 0.7 -24.4°
